This is the latest recevied weather packets stored in our database for station/object W7JFO-3. If no packets are shown the sender has not sent any weather packets the latest 10 day(s).
| Time | Temp. | Humidity | Pressure | Rain* | Wind** | Luminosity | Snow |
|---|---|---|---|---|---|---|---|
| 1777600015 | 16.11° C | 32% | 1015.8 hPa | 0 mm | - | 28 W/m² | - |
| 1777599115 | 16.67° C | 31% | 1015.9 hPa | 0 mm | - | 26 W/m² | - |
| 1777598215 | 16.67° C | 33% | 1015.9 hPa | 0 mm | - | 155 W/m² | - |
| 1777597315 | 16.67° C | 32% | 1016 hPa | 0 mm | - | 174 W/m² | - |
| 1777596415 | 16.67° C | 32% | 1016.1 hPa | 0 mm | - | 271 W/m² | - |
| 1777595515 | 17.22° C | 31% | 1016.2 hPa | 0 mm | - | 315 W/m² | - |
| 1777594615 | 16.67° C | 32% | 1016.4 hPa | 0 mm | - | 359 W/m² | - |
| 1777593715 | 16.67° C | 33% | 1016.5 hPa | 0 mm | - | 403 W/m² | - |
| 1777592815 | 16.67° C | 34% | 1016.5 hPa | 0 mm | - | 446 W/m² | - |
| 1777591915 | 16.67° C | 33% | 1016.8 hPa | 0 mm | - | 489 W/m² | - |
| 1777591015 | 16.67° C | 33% | 1017.2 hPa | 0 mm | - | 531 W/m² | - |
| 1777590115 | 16.11° C | 36% | 1017.4 hPa | 0 mm | - | 570 W/m² | - |
| 1777589215 | 16.11° C | 33% | 1017.5 hPa | 0 mm | - | 608 W/m² | - |
| 1777588315 | 16.11° C | 33% | 1017.7 hPa | 0 mm | - | 645 W/m² | - |
| 1777587415 | 16.11° C | 33% | 1017.8 hPa | 0 mm | - | 673 W/m² | - |
| 1777586515 | 16.11° C | 34% | 1018 hPa | 0 mm | - | 710 W/m² | - |
| 1777585615 | 15.56° C | 33% | 1018.1 hPa | 0 mm | - | 738 W/m² | - |
| 1777584715 | 15.56° C | 33% | 1018.4 hPa | 0 mm | - | 786 W/m² | - |
| 1777583815 | 15.56° C | 34% | 1018.4 hPa | 0 mm | - | 789 W/m² | - |
| 1777582915 | 15° C | 35% | 1018.6 hPa | 0 mm | - | 809 W/m² | - |
| 1777582015 | 15° C | 36% | 1018.8 hPa | 0 mm | - | 86 W/m² | - |
| 1777581115 | 14.44° C | 38% | 1019 hPa | 0 mm | - | 83 W/m² | - |
| 1777580215 | 13.89° C | 36% | 1019.1 hPa | 0 mm | - | 773 W/m² | - |
| 1777579315 | 13.89° C | 41% | 1019.4 hPa | 0 mm | - | 865 W/m² | - |
| 1777578415 | 13.89° C | 41% | 1019.4 hPa | 0 mm | - | 846 W/m² | - |
* Rain latest hour (hover to see other rain measurements)
** Current wind speed in m/s (hover to see current wind gust speed)